User: anonymous   Login
Location: Mentone
(34.5413°N, 85.5351°W)
Time: 08:44:47
(UTC-06:00)
Language:

Transit 2A Rocket - Orbit

View from above orbital plane
View from above orbital plane
View from above satellite
View from above satellite

Ground track
Ground track

The orbit data is extracted from the following two-line orbital elements,

1 00047U 60007C   15032.18870982  .00000863  00000-0  21501-3 0  4194
2 00047 066.6684 002.9910 0236320 298.4926 059.2558 14.41473328852080
Epoch (UTC): 01 February 2015 04:31:44
Eccentricity: 0.0236320
inclination: 66.6684°
perigee height: 585 km
apogee height: 922 km
right ascension of ascending node: 2.9910°
argument of perigee: 298.4926°
revolutions per day: 14.41473328
mean anomaly at epoch: 59.2558°
orbit number at epoch: 85208

The dashed part of the orbit path shows where the satellite is in the earth's shadow,  

DLR